Time,TemperatureF,DewpointF,PressureIn,WindDirection,WindDirectionDegrees,WindSpeedMPH,WindSpeedGustMPH,Humidity,HourlyPrecipIn,Conditions,Clouds,dailyrainin,SolarRadiationWatts/m^2,SoftwareType,DateUTC
2013-01-21 00:01:00,-7.0,-14.0,-100.00,West,261,4.0,8.0,72,0.00,,,0.00,0.000000,,2013-01-21 06:01:00,
2013-01-21 00:33:00,-7.0,-14.0,-100.00,West,261,4.0,8.0,72,0.00,,,0.00,0.000000,,2013-01-21 06:33:00,
2013-01-21 00:43:00,-7.0,-14.0,-100.00,West,261,4.0,8.0,72,0.00,,,0.00,0.000000,,2013-01-21 06:43:00,
2013-01-21 00:53:00,-7.0,-14.0,-100.00,West,261,4.0,8.0,72,0.00,,,0.00,0.000000,,2013-01-21 06:53:00,
2013-01-21 01:01:00,-9.0,-16.0,-100.00,West,263,3.0,9.0,72,0.00,,,0.00,0.000000,,2013-01-21 07:01:00,
2013-01-21 01:33:00,-9.0,-16.0,-100.00,West,263,3.0,9.0,72,0.00,,,0.00,0.000000,,2013-01-21 07:33:00,
2013-01-21 01:42:00,-9.0,-16.0,-100.00,West,263,3.0,9.0,72,0.00,,,0.00,0.000000,,2013-01-21 07:42:00,
2013-01-21 01:53:00,-9.0,-16.0,-100.00,West,263,3.0,9.0,72,0.00,,,0.00,0.000000,,2013-01-21 07:53:00,
2013-01-21 02:01:00,-7.0,-14.0,-100.00,WNW,292,6.0,10.0,72,0.00,,,0.00,0.000000,,2013-01-21 08:01:00,
2013-01-21 02:23:00,-7.0,-14.0,-100.00,WNW,292,6.0,10.0,72,0.00,,,0.00,0.000000,,2013-01-21 08:23:00,
2013-01-21 02:33:00,-7.0,-14.0,-100.00,WNW,292,6.0,10.0,72,0.00,,,0.00,0.000000,,2013-01-21 08:33:00,
2013-01-21 02:43:00,-7.0,-14.0,-100.00,WNW,292,6.0,10.0,72,0.00,,,0.00,0.000000,,2013-01-21 08:43:00,
2013-01-21 02:53:00,-7.0,-14.0,-100.00,WNW,292,6.0,10.0,72,0.00,,,0.00,0.000000,,2013-01-21 08:53:00,
2013-01-21 03:01:00,-7.0,-14.0,-100.00,WNW,285,6.0,15.0,71,0.00,,,-99.99,0.000000,,2013-01-21 09:01:00,
2013-01-21 03:33:00,-7.0,-14.0,-100.00,WNW,285,6.0,15.0,71,0.00,,,-99.99,0.000000,,2013-01-21 09:33:00,
2013-01-21 03:43:00,-7.0,-14.0,-100.00,WNW,285,6.0,15.0,71,0.00,,,-99.99,0.000000,,2013-01-21 09:43:00,
2013-01-21 03:53:00,-7.0,-14.0,-100.00,WNW,285,6.0,15.0,71,0.00,,,-99.99,0.000000,,2013-01-21 09:53:00,
2013-01-21 04:01:00,-10.0,-17.0,-100.00,West,268,6.0,16.0,70,0.00,,,0.00,0.000000,,2013-01-21 10:01:00,
2013-01-21 04:33:00,-10.0,-17.0,-100.00,West,268,6.0,16.0,70,0.00,,,0.00,0.000000,,2013-01-21 10:33:00,
2013-01-21 04:43:00,-10.0,-17.0,-100.00,West,268,6.0,16.0,70,0.00,,,0.00,0.000000,,2013-01-21 10:43:00,
2013-01-21 04:53:00,-10.0,-17.0,-100.00,West,268,6.0,16.0,70,0.00,,,0.00,0.000000,,2013-01-21 10:53:00,
2013-01-21 05:01:00,-11.0,-19.0,-100.00,WNW,286,8.0,14.0,68,0.00,,,0.00,0.000000,,2013-01-21 11:01:00,
2013-01-21 05:33:00,-11.0,-19.0,-100.00,WNW,286,8.0,14.0,68,0.00,,,0.00,0.000000,,2013-01-21 11:33:00,
2013-01-21 05:43:00,-11.0,-19.0,-100.00,WNW,286,8.0,14.0,68,0.00,,,0.00,0.000000,,2013-01-21 11:43:00,
2013-01-21 05:53:00,-11.0,-19.0,-100.00,WNW,286,8.0,14.0,68,0.00,,,0.00,0.000000,,2013-01-21 11:53:00,
2013-01-21 06:01:00,-12.0,-20.0,-100.00,WNW,293,9.0,16.0,66,0.00,,,0.00,0.000000,,2013-01-21 12:01:00,
2013-01-21 06:23:00,-12.0,-20.0,-100.00,WNW,293,9.0,16.0,66,0.00,,,0.00,0.000000,,2013-01-21 12:23:00,
2013-01-21 06:33:00,-12.0,-20.0,-100.00,WNW,293,9.0,16.0,66,0.00,,,0.00,0.000000,,2013-01-21 12:33:00,
2013-01-21 06:43:00,-12.0,-20.0,-100.00,WNW,293,9.0,16.0,66,0.00,,,0.00,0.000000,,2013-01-21 12:43:00,
2013-01-21 06:53:00,-12.0,-20.0,-100.00,WNW,293,9.0,16.0,66,0.00,,,0.00,0.000000,,2013-01-21 12:53:00,
2013-01-21 07:01:00,-14.0,-22.0,-100.00,West,280,7.0,18.0,66,0.00,,,0.00,0.000000,,2013-01-21 13:01:00,
2013-01-21 07:33:00,-14.0,-22.0,-100.00,West,280,7.0,18.0,66,0.00,,,0.00,0.000000,,2013-01-21 13:33:00,
2013-01-21 07:43:00,-14.0,-22.0,-100.00,West,280,7.0,18.0,66,0.00,,,0.00,0.000000,,2013-01-21 13:43:00,
2013-01-21 07:54:00,-14.0,-22.0,-100.00,West,280,7.0,18.0,66,0.00,,,0.00,0.000000,,2013-01-21 13:54:00,
2013-01-21 08:01:00,-14.0,-22.0,-100.00,WNW,285,7.0,18.0,66,0.00,,,0.00,5.000000,,2013-01-21 14:01:00,
2013-01-21 08:33:00,-14.0,-22.0,-100.00,WNW,285,7.0,18.0,66,0.00,,,0.00,5.000000,,2013-01-21 14:33:00,
2013-01-21 08:43:00,-14.0,-22.0,-100.00,WNW,285,7.0,18.0,66,0.00,,,0.00,5.000000,,2013-01-21 14:43:00,
2013-01-21 08:53:00,-14.0,-22.0,-100.00,WNW,285,7.0,18.0,66,0.00,,,0.00,5.000000,,2013-01-21 14:53:00,
2013-01-21 09:01:00,-14.0,-22.0,-100.00,WNW,293,8.0,17.0,66,0.00,,,0.00,42.000000,,2013-01-21 15:01:00,
2013-01-21 09:33:00,-14.0,-22.0,-100.00,WNW,293,8.0,17.0,66,0.00,,,0.00,42.000000,,2013-01-21 15:33:00,
2013-01-21 09:43:00,-14.0,-22.0,-100.00,WNW,293,8.0,17.0,66,0.00,,,0.00,42.000000,,2013-01-21 15:43:00,
2013-01-21 09:53:00,-14.0,-22.0,-100.00,WNW,293,8.0,17.0,66,0.00,,,0.00,42.000000,,2013-01-21 15:53:00,
2013-01-21 10:01:00,-14.0,-22.0,-100.00,WNW,288,9.0,19.0,65,0.00,,,0.00,102.000000,,2013-01-21 16:01:00,
2013-01-21 10:33:00,-14.0,-22.0,-100.00,WNW,288,9.0,19.0,65,0.00,,,0.00,102.000000,,2013-01-21 16:33:00,
2013-01-21 10:43:00,-14.0,-22.0,-100.00,WNW,288,9.0,19.0,65,0.00,,,0.00,102.000000,,2013-01-21 16:43:00,
2013-01-21 10:53:00,-14.0,-22.0,-100.00,WNW,288,9.0,19.0,65,0.00,,,0.00,102.000000,,2013-01-21 16:53:00,
2013-01-21 11:01:00,-12.0,-21.0,-100.00,WNW,296,10.0,19.0,63,0.00,,,0.00,168.000000,,2013-01-21 17:01:00,
2013-01-21 11:33:00,-12.0,-21.0,-100.00,WNW,296,10.0,19.0,63,0.00,,,0.00,168.000000,,2013-01-21 17:33:00,
2013-01-21 11:43:00,-12.0,-21.0,-100.00,WNW,296,10.0,19.0,63,0.00,,,0.00,168.000000,,2013-01-21 17:43:00,
2013-01-21 11:53:00,-12.0,-21.0,-100.00,WNW,296,10.0,19.0,63,0.00,,,0.00,168.000000,,2013-01-21 17:53:00,
2013-01-21 12:01:00,-12.0,-21.0,-100.00,WNW,291,9.0,18.0,62,0.00,,,0.00,191.000000,,2013-01-21 18:01:00,
2013-01-21 12:33:00,-12.0,-21.0,-100.00,WNW,291,9.0,18.0,62,0.00,,,0.00,191.000000,,2013-01-21 18:33:00,
2013-01-21 12:43:00,-12.0,-21.0,-100.00,WNW,291,9.0,18.0,62,0.00,,,0.00,191.000000,,2013-01-21 18:43:00,
2013-01-21 12:53:00,-12.0,-21.0,-100.00,WNW,291,9.0,18.0,62,0.00,,,0.00,191.000000,,2013-01-21 18:53:00,
2013-01-21 13:01:00,-13.0,-23.0,-100.00,WNW,285,10.0,19.0,60,0.00,,,0.00,195.000000,,2013-01-21 19:01:00,
2013-01-21 13:23:00,-13.0,-23.0,-100.00,WNW,285,10.0,19.0,60,0.00,,,0.00,195.000000,,2013-01-21 19:23:00,
2013-01-21 13:33:00,-13.0,-23.0,-100.00,WNW,285,10.0,19.0,60,0.00,,,0.00,195.000000,,2013-01-21 19:33:00,
2013-01-21 13:43:00,-13.0,-23.0,-100.00,WNW,285,10.0,19.0,60,0.00,,,0.00,195.000000,,2013-01-21 19:43:00,
2013-01-21 13:53:00,-13.0,-23.0,-100.00,WNW,285,10.0,19.0,60,0.00,,,0.00,195.000000,,2013-01-21 19:53:00,
2013-01-21 14:01:00,-13.0,-23.0,-100.00,WNW,286,9.0,18.0,60,0.00,,,0.00,167.000000,,2013-01-21 20:01:00,
2013-01-21 14:33:00,-13.0,-23.0,-100.00,WNW,286,9.0,18.0,60,0.00,,,0.00,167.000000,,2013-01-21 20:33:00,
2013-01-21 14:43:00,-13.0,-23.0,-100.00,WNW,286,9.0,18.0,60,0.00,,,0.00,167.000000,,2013-01-21 20:43:00,
2013-01-21 14:53:00,-13.0,-23.0,-100.00,WNW,286,9.0,18.0,60,0.00,,,0.00,167.000000,,2013-01-21 20:53:00,
2013-01-21 15:01:00,-13.0,-23.0,-100.00,WNW,282,8.0,18.0,61,0.00,,,0.00,112.000000,,2013-01-21 21:01:00,
2013-01-21 15:33:00,-13.0,-23.0,-100.00,WNW,282,8.0,18.0,61,0.00,,,0.00,112.000000,,2013-01-21 21:33:00,
2013-01-21 15:43:00,-13.0,-23.0,-100.00,WNW,282,8.0,18.0,61,0.00,,,0.00,112.000000,,2013-01-21 21:43:00,
2013-01-21 15:53:00,-13.0,-23.0,-100.00,WNW,282,8.0,18.0,61,0.00,,,0.00,112.000000,,2013-01-21 21:53:00,
2013-01-21 16:01:00,-13.0,-22.0,-100.00,West,271,8.0,19.0,62,0.00,,,0.00,57.000000,,2013-01-21 22:01:00,
2013-01-21 16:23:00,-13.0,-22.0,-100.00,West,271,8.0,19.0,62,0.00,,,0.00,57.000000,,2013-01-21 22:23:00,
2013-01-21 16:33:00,-13.0,-22.0,-100.00,West,271,8.0,19.0,62,0.00,,,0.00,57.000000,,2013-01-21 22:33:00,
2013-01-21 16:43:00,-13.0,-22.0,-100.00,West,271,8.0,19.0,62,0.00,,,0.00,57.000000,,2013-01-21 22:43:00,
2013-01-21 16:53:00,-13.0,-22.0,-100.00,West,271,8.0,19.0,62,0.00,,,0.00,57.000000,,2013-01-21 22:53:00,
2013-01-21 17:01:00,-13.0,-22.0,-100.00,West,276,7.0,14.0,63,0.00,,,0.00,12.000000,,2013-01-21 23:01:00,
2013-01-21 17:33:00,-13.0,-22.0,-100.00,West,276,7.0,14.0,63,0.00,,,0.00,12.000000,,2013-01-21 23:33:00,
2013-01-21 17:43:00,-13.0,-22.0,-100.00,West,276,7.0,14.0,63,0.00,,,0.00,12.000000,,2013-01-21 23:43:00,
2013-01-21 17:53:00,-13.0,-22.0,-100.00,West,276,7.0,14.0,63,0.00,,,0.00,12.000000,,2013-01-21 23:53:00,
2013-01-21 18:01:00,-13.0,-22.0,-100.00,West,277,8.0,18.0,63,0.00,,,0.00,0.000000,,2013-01-22 00:01:00,
2013-01-21 18:23:00,-13.0,-22.0,-100.00,West,277,8.0,18.0,63,0.00,,,0.00,0.000000,,2013-01-22 00:23:00,
2013-01-21 18:33:00,-13.0,-22.0,-100.00,West,277,8.0,18.0,63,0.00,,,0.00,0.000000,,2013-01-22 00:33:00,
2013-01-21 18:43:00,-13.0,-22.0,-100.00,West,277,8.0,18.0,63,0.00,,,0.00,0.000000,,2013-01-22 00:43:00,
2013-01-21 18:53:00,-13.0,-22.0,-100.00,West,277,8.0,18.0,63,0.00,,,0.00,0.000000,,2013-01-22 00:53:00,
2013-01-21 19:01:00,-13.0,-21.0,-100.00,West,269,8.0,17.0,65,0.00,,,0.00,0.000000,,2013-01-22 01:01:00,
2013-01-21 19:23:00,-13.0,-21.0,-100.00,West,269,8.0,17.0,65,0.00,,,0.00,0.000000,,2013-01-22 01:23:00,
2013-01-21 19:33:00,-13.0,-21.0,-100.00,West,269,8.0,17.0,65,0.00,,,0.00,0.000000,,2013-01-22 01:33:00,
2013-01-21 19:43:00,-13.0,-21.0,-100.00,West,269,8.0,17.0,65,0.00,,,0.00,0.000000,,2013-01-22 01:43:00,
2013-01-21 19:52:00,-13.0,-21.0,-100.00,West,269,8.0,17.0,65,0.00,,,0.00,0.000000,,2013-01-22 01:52:00,
2013-01-21 20:01:00,-13.0,-21.0,-100.00,West,277,7.0,15.0,67,0.00,,,0.00,0.000000,,2013-01-22 02:01:00,
2013-01-21 20:33:00,-13.0,-21.0,-100.00,West,277,7.0,15.0,67,0.00,,,0.00,0.000000,,2013-01-22 02:33:00,
2013-01-21 20:43:00,-13.0,-21.0,-100.00,West,277,7.0,15.0,67,0.00,,,0.00,0.000000,,2013-01-22 02:43:00,
2013-01-21 20:53:00,-13.0,-21.0,-100.00,West,277,7.0,15.0,67,0.00,,,0.00,0.000000,,2013-01-22 02:53:00,
2013-01-21 21:01:00,-12.0,-19.0,-100.00,West,273,6.0,12.0,69,0.00,,,0.00,0.000000,,2013-01-22 03:01:00,
2013-01-21 21:22:00,-12.0,-19.0,-100.00,West,273,6.0,12.0,69,0.00,,,0.00,0.000000,,2013-01-22 03:22:00,
2013-01-21 21:33:00,-12.0,-19.0,-100.00,West,273,6.0,12.0,69,0.00,,,0.00,0.000000,,2013-01-22 03:33:00,
2013-01-21 21:42:00,-12.0,-19.0,-100.00,West,273,6.0,12.0,69,0.00,,,0.00,0.000000,,2013-01-22 03:42:00,
2013-01-21 21:53:00,-12.0,-19.0,-100.00,West,273,6.0,12.0,69,0.00,,,0.00,0.000000,,2013-01-22 03:53:00,
2013-01-21 22:01:00,-12.0,-19.0,-100.00,West,277,5.0,10.0,69,0.00,,,0.00,0.000000,,2013-01-22 04:01:00,
2013-01-21 22:33:00,-12.0,-19.0,-100.00,West,277,5.0,10.0,69,0.00,,,0.00,0.000000,,2013-01-22 04:33:00,
2013-01-21 22:42:00,-12.0,-19.0,-100.00,West,277,5.0,10.0,69,0.00,,,0.00,0.000000,,2013-01-22 04:42:00,
2013-01-21 22:52:00,-12.0,-19.0,-100.00,West,277,5.0,10.0,69,0.00,,,0.00,0.000000,,2013-01-22 04:52:00,
2013-01-21 23:01:00,-11.0,-18.0,-100.00,West,279,6.0,11.0,70,0.00,,,0.00,0.000000,,2013-01-22 05:01:00,
2013-01-21 23:33:00,-11.0,-18.0,-100.00,West,279,6.0,11.0,70,0.00,,,0.00,0.000000,,2013-01-22 05:33:00,
2013-01-21 23:43:00,-11.0,-18.0,-100.00,West,279,6.0,11.0,70,0.00,,,0.00,0.000000,,2013-01-22 05:43:00,
2013-01-21 23:53:00,-11.0,-18.0,-100.00,West,279,6.0,11.0,70,0.00,,,0.00,0.000000,,2013-01-22 05:53:00,